Wind_Speed
7 6 5 8 13 16 16 15 13 7 10 12 14 14 14 14 13 12 12 13 13 14 13 12 12 12 12 13 11 11 11 12 11 11 10 10 10 10 10 9 9 10 10
7 4 5 8 10 12 13 11 11 13 9 9 11 12 12 12 12 13 14 12 13 12 12 11 11 12 12 11 10 9 9 10 10 9 8 8 8 9 10 9 8 8 9
6 3 4 8 7 8 8 8 5 8 8 9 11 8 9 11 11 10 12 13 12 11 10 10 10 10 10 10 9 9 8 6 6 6 7 7 7 7 8 8 9 7 7
6 3 1 9 9 7 6 5 4 4 5 7 4 5 6 6 6 8 8 10 11 10 9 8 9 9 9 8 8 7 7 5 4 4 5 5 5 6 6 7 8 7 5
4 5 1 6 6 5 4 3 3 4 4 4 5 5 4 4 4 5 6 7 8 8 7 7 7 7 7 6 6 6 5 4 4 3 3 4 5 5 6 6 6 7 3
5 6 5 4 5 6 5 2 2 4 7 5 4 5 4 5 4 3 3 4 5 7 7 5 4 4 5 6 6 4 4 3 3 3 3 3 5 5 5 7 7 6 2
4 5 6 5 3 2 2 4 1 3 5 7 6 7 7 7 5 6 4 4 4 5 5 6 5 3 2 4 4 4 4 4 4 4 4 5 5 5 6 7 8 6 2
3 4 4 5 7 5 2 2 5 6 6 7 7 7 9 10 10 8 6 7 6 6 6 6 6 6 6 5 5 6 6 5 6 5 5 7 7 7 7 7 7 6 4
4 5 5 5 4 4 5 6 6 5 4 5 6 7 7 8 10 10 11 10 7 10 8 8 8 8 7 7 7 7 7 7 5 7 7 7 8 8 8 9 8 6 6
3 3 3 4 4 5 5 6 5 5 4 5 6 7 7 8 9 10 10 10 9 8 9 10 10 9 8 8 7 8 8 8 7 6 7 8 9 9 10 10 10 9 8
3 2 3 3 3 4 4 6 6 4 4 4 4 4 5 7 7 7 9 10 10 10 11 11 11 12 11 9 9 8 8 9 8 7 6 8 9 9 10 12 11 11 11
3 3 3 3 3 4 4 4 4 4 4 5 5 5 6 7 8 8 8 8 9 9 12 14 13 14 15 13 11 10 10 9 10 9 7 6 9 11 11 13 13 13 13
4 3 3 3 4 4 4 5 5 5 6 6 7 7 8 8 8 8 9 9 9 9 11 12 13 15 17 17 15 13 13 12 11 11 9 8 10 13 13 14 16 15 14
6 4 4 4 4 4 6 6 7 7 8 8 10 10 9 9 10 11 11 11 12 12 12 12 13 14 14 15 17 17 17 17 15 13 11 10 11 13 15 17 19 18 18
6 5 5 4 4 5 6 7 8 9 10 12 12 13 13 14 14 15 15 15 15 15 14 14 14 16 16 16 16 17 18 17 16 17 16 13 13 13 17 19 19 19 18
7 5 4 3 3 5 5 7 9 10 12 13 14 15 16 16 17 17 18 18 18 18 18 18 18 18 18 19 19 19 19 19 21 21 17 19 19 20 19 20 20 22 20
8 6 4 2 3 4 5 6 8 9 11 12 14 15 16 17 18 18 18 19 19 20 20 20 19 19 18 18 19 20 21 21 22 23 23 22 19 20 25 25 24 24 26
9 7 4 2 1 2 4 5 6 8 10 12 14 16 18 20 21 22 22 23 24 23 23 23 24 24 23 23 22 20 20 21 22 22 24 24 26 25 22 25 25 26 29
11 8 6 3 0 1 2 4 6 8 10 12 13 15 17 18 20 22 24 25 25 26 26 26 26 27 26 25 25 24 23 21 20 21 21 22 23 27 30 26 29 28 29
14 10 7 4 2 1 1 3 5 7 10 11 13 15 17 18 19 20 21 23 25 27 28 28 30 30 32 33 30 25 20 18 16 14 14 15 19 20 28 32 34 33 34
16 12 8 5 3 1 2 2 3 4 7 9 11 13 15 16 18 19 21 23 25 27 29 30 31 33 35 38 39 38 28 24 8 16 18 18 19 20 21 26 30 35 35
17 14 10 7 5 4 3 2 1 3 6 8 10 12 13 15 16 18 20 22 23 25 26 28 30 32 33 37 37 34 27 26 26 31 21 25 25 25 24 24 25 30 34
19 15 11 8 7 5 3 2 0 2 4 6 6 8 10 13 15 17 19 20 22 24 26 27 28 30 31 31 31 27 14 12 43 34 36 30 30 29 30 29 28 28 30
20 16 13 11 9 6 4 2 2 3 3 3 5 8 10 12 13 15 17 18 20 22 23 26 27 27 27 28 28 28 24 20 13 21 41 39 37 33 32 34 32 29 31
21 17 14 12 10 7 5 5 4 4 4 4 5 6 7 8 10 12 13 16 18 20 22 23 24 25 26 26 26 27 28 26 16 23 24 45 45 38 36 35 36 33 33
23 19 16 14 12 9 7 6 5 5 5 5 4 4 4 5 8 10 12 14 17 19 21 22 23 24 24 24 24 24 25 25 29 27 32 36 32 43 43 37 37 37 35
Wind_Direction
9 65 90 107 42 42 49 51 55 52 77 66 60 54 53 49 42 49 52 50 50 55 53 55 56 53 49 49 48 48 54 54 59 66 73 72 70 64 56 53 49 49 54
11 48 66 123 62 48 54 58 48 64 70 78 75 63 55 49 44 50 49 54 52 51 52 54 55 53 52 51 48 49 55 56 55 60 67 65 55 51 49 50 45 47 49
20 45 37 140 103 89 93 79 62 56 58 72 68 75 68 57 51 53 54 52 52 49 47 45 49 52 52 49 45 42 46 47 53 55 54 57 52 40 45 38 32 27 43
40 31 322 143 121 106 99 92 63 49 50 54 71 76 58 49 43 51 47 50 52 45 44 45 40 38 41 44 41 40 35 31 30 47 36 46 47 40 30 27 23 16 36
56 55 18 163 148 140 110 88 40 12 34 45 42 40 36 27 18 30 39 42 37 44 42 33 32 33 22 26 38 40 22 12 8 1 358 17 19 23 22 21 17 12 29
52 53 66 104 186 166 177 223 313 13 11 39 20 14 4 16 358 4 5 11 12 18 19 18 27 18 4 2 4 15 4 347 348 342 317 344 358 355 2 9 4 8 27
81 73 61 71 114 158 156 203 224 316 343 350 346 336 330 312 328 332 318 314 321 335 349 357 350 330 321 329 332 334 332 329 326 304 285 286 316 328 334 337 351 342 353
78 78 63 37 33 21 358 251 267 269 296 304 306 312 318 324 320 310 309 301 306 305 318 329 332 332 322 310 310 314 314 317 315 298 280 266 280 302 307 321 325 318 282
67 54 43 36 32 2 359 329 321 317 299 291 296 301 304 305 305 307 310 293 309 295 300 308 312 323 323 323 313 308 310 307 312 313 298 286 274 273 290 301 304 307 271
90 74 57 46 34 22 23 8 346 328 323 307 295 296 300 302 300 297 297 301 301 313 309 300 301 309 315 317 312 303 297 298 300 303 305 300 291 279 289 292 293 293 290
126 103 79 55 38 24 23 18 16 351 339 354 339 327 313 304 304 305 297 290 287 288 294 289 295 297 297 303 306 301 292 286 290 298 312 306 298 288 282 287 293 298 287
132 115 92 70 48 30 22 17 8 10 360 348 346 332 323 332 324 320 319 311 300 285 273 274 279 284 286 288 290 294 293 291 289 294 295 311 300 293 288 290 288 291 287
154 119 94 75 58 44 37 25 13 10 12 13 12 6 3 354 350 325 314 303 304 297 284 280 276 269 275 281 280 288 295 292 292 286 283 287 299 294 296 301 298 298 290
148 136 111 87 66 51 44 36 30 24 24 19 20 18 14 8 2 356 350 345 331 316 313 307 299 295 299 295 288 283 285 287 280 280 275 265 279 285 286 286 286 285 286
150 139 125 101 78 59 44 37 32 28 28 28 22 20 18 16 12 10 5 0 356 349 339 329 316 307 302 299 300 291 283 279 281 275 274 271 268 272 285 292 295 297 291
167 155 136 107 76 51 39 33 29 26 27 23 21 20 18 15 13 11 8 4 0 358 353 347 340 330 318 309 302 300 293 287 275 278 281 279 276 276 274 283 291 292 290
176 169 153 132 75 43 31 33 31 27 25 22 21 20 19 18 16 12 9 6 4 1 355 350 345 339 333 325 315 306 301 296 284 278 278 277 282 288 286 281 286 289 288
186 179 175 161 72 34 35 33 31 30 26 22 20 18 16 14 12 10 9 7 6 2 359 354 348 345 342 337 331 326 319 306 297 287 279 278 276 274 275 284 287 286 285
199 197 198 204 248 35 47 40 32 29 25 24 21 18 16 12 9 5 4 3 1 360 359 359 357 352 348 342 338 334 331 326 313 303 293 283 275 275 273 271 275 280 285
204 204 205 209 211 172 72 53 41 31 22 21 16 14 11 8 6 4 1 359 357 356 355 356 356 355 352 348 345 344 339 331 329 317 311 301 284 280 273 272 271 274 277
208 209 214 215 204 172 84 60 50 30 18 12 11 9 6 5 4 4 2 0 360 358 358 355 353 352 352 349 346 346 350 345 4 345 319 313 309 301 291 282 276 272 273
209 212 217 217 206 186 176 165 63 17 7 5 8 6 5 6 7 7 5 4 3 1 359 357 357 356 355 356 357 356 349 344 324 334 335 327 318 311 306 301 294 278 276
210 213 217 216 210 209 210 208 310 357 358 4 3 4 9 11 10 9 8 7 6 4 3 2 2 0 359 358 0 4 353 335 333 324 329 331 325 321 314 308 304 298 292
211 213 217 215 214 215 220 252 293 315 326 344 0 7 11 9 8 9 9 9 9 8 6 5 4 3 1 359 354 354 352 343 329 322 325 328 326 323 321 315 312 306 298
214 218 219 215 217 221 233 252 272 295 319 339 359 5 1 1 6 9 10 12 11 11 10 7 6 5 3 360 356 349 343 342 345 314 318 326 320 326 323 321 316 313 308
216 217 217 218 223 228 240 259 274 294 309 319 325 333 344 359 7 12 15 15 15 14 12 10 7 3 1 358 352 350 346 340 334 330 318 320 319 323 322 319 319 316 311
Height
1575 1574 1574 1573 1574 1573 1573 1572 1571 1570 1569 1569 1567 1566 1566 1565 1563 1562 1561 1560 1559 1557 1558 1559 1558 1558 1557 1555 1555 1555 1554 1554 1554 1554 1553 1554 1555 1555 1555 1555 1554 1555 1555
1574 1573 1573 1572 1573 1573 1572 1572 1571 1570 1569 1568 1568 1567 1566 1565 1565 1563 1561 1561 1560 1560 1559 1559 1558 1557 1556 1558 1557 1557 1556 1556 1555 1555 1555 1555 1556 1556 1555 1556 1557 1556 1556
1573 1573 1573 1572 1572 1572 1571 1572 1571 1570 1569 1568 1567 1567 1566 1565 1564 1563 1561 1562 1561 1561 1560 1559 1559 1559 1558 1557 1558 1558 1556 1558 1557 1557 1556 1556 1557 1557 1556 1557 1556 1557 1557
1572 1572 1572 1571 1571 1571 1571 1570 1571 1570 1569 1568 1567 1566 1566 1565 1564 1564 1563 1561 1560 1560 1560 1561 1559 1558 1558 1559 1559 1558 1557 1559 1558 1557 1558 1558 1557 1558 1558 1558 1558 1558 1557
1573 1572 1572 1571 1571 1570 1570 1570 1571 1570 1569 1568 1567 1566 1566 1566 1565 1565 1564 1563 1562 1561 1561 1560 1559 1559 1560 1560 1559 1557 1559 1559 1559 1558 1558 1559 1558 1559 1558 1559 1558 1558 1558
1572 1572 1571 1570 1570 1570 1570 1570 1571 1570 1568 1568 1567 1567 1566 1565 1566 1565 1565 1563 1562 1561 1560 1560 1559 1559 1560 1560 1558 1558 1559 1559 1557 1558 1559 1558 1559 1559 1559 1558 1559 1559 1559
1573 1572 1572 1571 1571 1570 1569 1569 1569 1570 1569 1568 1568 1567 1566 1565 1564 1564 1564 1564 1564 1563 1563 1562 1561 1560 1559 1559 1558 1558 1558 1558 1557 1558 1558 1559 1559 1559 1559 1560 1559 1559 1559
1573 1572 1571 1572 1570 1570 1569 1569 1568 1569 1569 1569 1568 1567 1566 1565 1564 1564 1564 1563 1563 1563 1562 1562 1562 1561 1560 1559 1557 1557 1557 1557 1558 1558 1559 1559 1558 1558 1559 1559 1559 1560 1559
1573 1572 1572 1571 1570 1570 1569 1569 1568 1568 1567 1568 1567 1566 1566 1564 1564 1563 1563 1562 1562 1562 1561 1561 1561 1560 1559 1559 1558 1558 1558 1558 1557 1556 1557 1558 1558 1559 1559 1559 1558 1559 1559
1574 1573 1573 1572 1571 1570 1570 1569 1568 1567 1567 1567 1566 1565 1564 1564 1563 1562 1562 1561 1562 1562 1561 1560 1559 1558 1558 1558 1558 1558 1558 1557 1556 1556 1556 1556 1558 1558 1558 1559 1559 1558 1558
1573 1573 1574 1572 1571 1571 1570 1569 1567 1567 1566 1565 1565 1564 1564 1563 1562 1561 1561 1560 1560 1560 1560 1559 1558 1557 1556 1556 1557 1556 1556 1555 1555 1554 1555 1556 1557 1557 1557 1557 1558 1557 1557
1573 1574 1573 1572 1571 1570 1569 1569 1568 1567 1566 1565 1564 1563 1561 1561 1560 1559 1558 1558 1558 1558 1558 1557 1557 1556 1555 1555 1555 1554 1554 1554 1554 1554 1554 1554 1556 1556 1556 1556 1556 1556 1556
1573 1572 1572 1571 1571 1571 1569 1568 1568 1567 1566 1564 1563 1562 1560 1560 1559 1558 1557 1557 1556 1555 1554 1554 1553 1553 1553 1553 1553 1552 1552 1552 1552 1553 1553 1553 1554 1554 1554 1555 1554 1554 1554
1572 1571 1571 1571 1570 1570 1569 1568 1567 1566 1564 1563 1561 1561 1560 1559 1557 1555 1554 1553 1552 1552 1551 1551 1551 1550 1550 1549 1549 1549 1550 1549 1550 1550 1551 1552 1551 1551 1552 1552 1552 1551 1551
1569 1570 1571 1571 1570 1570 1569 1568 1567 1565 1564 1562 1561 1560 1559 1556 1555 1554 1553 1552 1550 1550 1549 1548 1547 1545 1545 1546 1546 1546 1546 1546 1547 1547 1548 1548 1549 1550 1549 1549 1549 1549 1548
1569 1570 1570 1570 1570 1569 1568 1567 1566 1564 1562 1561 1561 1559 1558 1556 1554 1553 1551 1551 1549 1548 1547 1545 1542 1541 1542 1542 1541 1541 1541 1541 1543 1544 1544 1545 1546 1546 1546 1546 1545 1546 1545
1569 1569 1569 1569 1568 1568 1567 1566 1565 1564 1563 1562 1561 1559 1557 1556 1554 1553 1551 1549 1547 1545 1545 1543 1541 1540 1539 1539 1537 1536 1536 1537 1538 1538 1539 1540 1541 1542 1542 1542 1542 1542 1541
1566 1566 1566 1566 1566 1566 1565 1564 1564 1563 1562 1561 1560 1559 1556 1555 1553 1551 1549 1547 1545 1544 1543 1540 1537 1535 1534 1533 1532 1532 1532 1533 1532 1532 1533 1533 1534 1535 1536 1537 1537 1536 1536
1563 1563 1564 1564 1564 1564 1563 1563 1562 1561 1560 1559 1558 1557 1555 1554 1552 1550 1547 1545 1545 1543 1541 1538 1535 1533 1531 1530 1528 1528 1528 1527 1527 1528 1528 1529 1528 1528 1529 1530 1531 1530 1530
1560 1561 1562 1562 1563 1562 1562 1561 1560 1559 1559 1558 1557 1555 1554 1553 1551 1549 1548 1546 1544 1541 1539 1536 1534 1531 1527 1523 1523 1525 1524 1523 1524 1524 1523 1524 1523 1522 1522 1522 1524 1524 1524
1557 1559 1559 1560 1560 1560 1560 1559 1558 1559 1558 1557 1555 1554 1553 1552 1551 1549 1548 1546 1543 1539 1537 1534 1531 1528 1524 1518 1514 1513 1516 1518 1520 1521 1521 1520 1519 1516 1516 1517 1517 1517 1517
1553 1555 1557 1558 1559 1559 1559 1558 1558 1557 1556 1555 1554 1553 1552 1551 1551 1549 1548 1545 1543 1540 1538 1535 1532 1529 1526 1520 1517 1512 1509 1510 1513 1515 1517 1517 1514 1513 1512 1513 1512 1511 1511
1550 1553 1554 1555 1556 1556 1557 1556 1555 1555 1554 1554 1553 1553 1552 1551 1550 1549 1547 1545 1543 1540 1538 1535 1533 1530 1528 1526 1521 1523 1519 1518 1508 1506 1509 1512 1511 1509 1508 1507 1507 1507 1506
1547 1549 1551 1552 1554 1554 1554 1554 1553 1553 1553 1553 1552 1551 1550 1550 1549 1547 1546 1545 1543 1540 1538 1536 1534 1532 1530 1528 1525 1524 1524 1522 1517 1504 1503 1504 1506 1505 1504 1501 1501 1501 1502
1544 1547 1549 1550 1551 1552 1552 1552 1552 1552 1552 1552 1551 1550 1550 1549 1548 1547 1546 1544 1543 1541 1539 1537 1535 1533 1531 1529 1527 1524 1523 1521 1520 1515 1503 1499 1497 1499 1498 1498 1495 1494 1494
1541 1544 1546 1548 1549 1550 1550 1551 1551 1551 1552 1552 1551 1550 1549 1548 1547 1545 1544 1543 1541 1540 1538 1537 1535 1533 1531 1529 1527 1525 1523 1520 1518 1514 1507 1501 1498 1493 1490 1491 1491 1489 1488